Greenville, ME

11:41 AM EST on December 13, 2019 (GMT -0500)
Greenville

Weather History for KGNR - August, 2019

Change the Weather History Date:

Sunday, August 18, 2019

  Actual Average (KMLT) Record (KMLT)
Temperature  
Mean Temperature 70 °F -  
Max Temperature 80 °F 77 °F 98 °F (1935)
Min Temperature 61 °F 56 °F 37 °F (1918)
Cooling Degree Days 4    
Growing Degree Days 20 (Base 50)    
Moisture  
Dew Point 63 °F    
Average Humidity 88    
Maximum Humidity 100    
Minimum Humidity 60    
Precipitation  
Precipitation 0.34 in - - ()
Sea Level Pressure  
Sea Level Pressure 30.01 in    
Wind  
Wind Speed 4 mph (ESE)    
Max Wind Speed 8 mph    
Max Gust Speed -    
Averages and records for this station are not official NWS values.
T = Trace of Precipitation, MM = Missing Value Source: NWS Daily Summary

Daily Weather History Graph

Daily Weather History Graph

Search for Another Location

Airport or City:

Astronomy

Aug. 18, 2019 Rise Set
Actual Time 5:42 AM EDT 7:41 PM EDT
Civil Twilight 5:10 AM EDT 8:13 PM EDT
Nautical Twilight 4:31 AM EDT 8:52 PM EDT
Astronomical Twilight 3:47 AM EDT 9:35 PM EDT
Moon 9:26 PM EDT (8/18) 8:30 AM EDT (8/18)
Length of Visible Light 15h 02m
Length of Day
13h 58m
Waning Gibbous, 91% of the Moon is Illuminated
Aug 18
Waning Gibbous
Aug 23
Last Quarter
Aug 30
New
Sep 5
First Quarter
Sep 14
Full

Hourly Weather History & Observations

Time (EDT) Temp. Dew Point Humidity Pressure Visibility Wind Dir Wind Speed Gust Speed Precip Events Conditions
12:56 AM 62.1 °F 61.0 °F 96% 30.02 in - Variable 4.6 mph - 0.02 in   Unknown
1:56 AM 62.1 °F 61.0 °F 96% 30.02 in - Calm Calm - 0.10 in   Unknown
2:56 AM 61.0 °F 61.0 °F 100% 30.01 in - SE 3.5 mph - 0.14 in   Unknown
3:56 AM 61.0 °F 61.0 °F 100% 30.01 in - SE 3.5 mph - N/A   Unknown
4:56 AM 61.0 °F 61.0 °F 100% 30.00 in - East 3.5 mph - 0.03 in   Unknown
5:56 AM 61.0 °F 60.1 °F 97% 30.01 in - SE 4.6 mph - 0.01 in   Unknown
6:56 AM 61.0 °F 61.0 °F 100% 30.02 in - Calm Calm - N/A   Unknown
7:56 AM 62.1 °F 62.1 °F 100% 30.02 in - Calm Calm - N/A   Unknown
8:56 AM 63.0 °F 62.1 °F 97% 30.02 in - Calm Calm - N/A   Unknown
9:56 AM 64.9 °F 63.0 °F 93% 30.03 in - Calm Calm - N/A   Unknown
10:56 AM 69.1 °F 64.9 °F 87% 30.03 in - Variable 3.5 mph - N/A   Unknown
12:56 PM 75.0 °F 63.0 °F 66% 30.00 in - Variable 3.5 mph - N/A   Unknown
1:56 PM 75.9 °F 62.1 °F 62% 30.00 in - NNW 4.6 mph - N/A   Unknown
2:56 PM 78.1 °F 63.0 °F 60% 29.99 in - ENE 5.8 mph - N/A   Unknown
3:56 PM 77.0 °F 62.1 °F 60% 29.99 in - ENE 3.5 mph - N/A   Unknown
4:56 PM 73.9 °F 66.0 °F 76% 29.99 in - SSE 8.1 mph - N/A   Unknown
5:56 PM 72.0 °F 66.0 °F 81% 30.00 in - Variable 5.8 mph - N/A   Unknown
6:56 PM 70.0 °F 66.0 °F 87% 29.99 in - ESE 6.9 mph - 0.04 in   Unknown
7:56 PM 68.0 °F 64.9 °F 90% 29.99 in - ESE 5.8 mph - N/A   Unknown
8:56 PM 68.0 °F 64.9 °F 90% 30.01 in - SE 6.9 mph - N/A   Unknown
9:56 PM 66.9 °F 64.9 °F 93% 30.01 in - SE 6.9 mph - N/A   Unknown
10:56 PM 66.0 °F 64.9 °F 96% 30.00 in - SE 8.1 mph - N/A   Unknown
11:56 PM 66.0 °F 64.9 °F 96% 29.99 in - SE 6.9 mph - N/A   Unknown